DW8565 Weather Reports


time (UTC)temp
F
wind
direction
speed
knots
gust
knots
rain 1hr
in
rain 24hr
in
rain mn
in
humidity
%
barometer
mb
20260505171253 61 159 4.3 12.2 0.00 0.00 0.00 72 1011.6
20260505170801 61 168 4.3 9.6 0.00 0.00 0.00 72 1011.6
20260505170752 61 196 4.3 9.6 0.00 0.00 0.00 72 1011.6
20260505165755 61 236 4.3 13.0 0.00 0.00 0.00 73 1011.5
20260505165254 61 199 4.3 13.0 0.00 0.00 0.00 73 1011.5
20260505164746 61 216 4.3 12.2 0.00 0.00 0.00 73 1011.5
20260505164242 61 164 4.3 12.2 0.00 0.00 0.00 73 1011.5
20260505163742 61 237 5.2 12.2 0.00 0.00 0.00 73 1011.6
20260505163242 60 171 5.2 12.2 0.00 0.00 0.00 74 1011.7
20260505163016 61 159 5.2 13.0 0.00 0.00 0.00 73 1011.7
20260505162241 60 150 5.2 13.0 0.00 0.00 0.00 74 1011.8
20260505161743 60 200 5.2 12.2 0.00 0.00 0.00 74 1011.7
20260505161242 61 169 4.3 12.2 0.00 0.00 0.00 73 1011.7
20260505160742 61 217 5.2 14.8 0.00 0.00 0.00 73 1011.8
20260505160242 61 196 5.2 14.8 0.00 0.00 0.00 73 1011.9
20260505153235 61 213 4.3 11.3 0.00 0.00 0.00 73 1012.2
20260505152729 61 45 3.5 7.8 0.00 0.00 0.00 73 1012.2
20260505152225 61 164 3.5 7.8 0.00 0.00 0.00 73 1012.1
20260505151718 61 217 3.5 8.7 0.00 0.00 0.00 73 1012.1
20260505151443 61 217 4.3 7.8 0.00 0.00 0.00 73 1012.3
20260505150707 61 222 3.5 7.8 0.00 0.00 0.00 73 1012.3
20260505150200 61 248 3.5 7.8 0.00 0.00 0.00 73 1012.4
20260505140555 60 165 3.5 9.6 0.00 0.00 0.00 74 1012.3
20260505140320 60 224 3.5 9.6 0.00 0.00 0.00 74 1012.3
20260505124418 59 211 3.5 9.6 0.00 0.00 0.00 78 1012.0
20260505124144 59 177 3.5 8.7 0.00 0.00 0.00 78 1012.0
20260505123636 59 216 3.5 8.7 0.00 0.00 0.00 78 1012.1
20260505122901 60 257 2.6 7.8 0.00 0.00 0.00 77 1012.0
20260505122624 60 0 2.6 7.8 0.00 0.00 0.00 78 1012.0
20260505122118 59 190 3.5 7.8 0.00 0.00 0.00 80 1011.9
20260505121342 58 202 3.5 7.8 0.00 0.00 0.00 79 1011.9
20260505120836 59 157 2.6 7.8 0.00 0.00 0.00 79 1012.0
20260505120330 59 156 2.6 7.8 0.00 0.00 0.00 79 1011.9
20260505115825 58 234 2.6 7.8 0.00 0.00 0.00 80 1011.9
20260505115319 58 304 2.6 6.1 0.00 0.00 0.00 81 1011.9
20260505115043 58 186 2.6 7.8 0.00 0.00 0.00 81 1011.9
20260505114307 58 185 2.6 8.7 0.00 0.00 0.00 83 1011.8
20260505113802 57 204 3.5 7.8 0.00 0.00 0.00 84 1011.8
20260505113256 56 157 2.6 8.7 0.00 0.00 0.00 84 1011.9
20260505112748 56 223 2.6 7.0 0.00 0.00 0.00 84 1011.8
20260505112242 56 174 2.6 7.0 0.00 0.00 0.00 85 1011.7
20260505111735 55 185 2.6 7.8 0.00 0.00 0.00 85 1011.7
20260505111230 55 172 2.6 7.8 0.00 0.00 0.00 86 1011.7
20260505110725 55 170 2.6 5.2 0.00 0.00 0.00 86 1011.8
20260505110218 55 234 2.6 7.0 0.00 0.00 0.00 86 1011.8
20260505102130 54 202 1.7 6.1 0.00 0.00 0.00 88 1011.4
20260505101623 54 213 2.6 6.1 0.00 0.00 0.00 88 1011.4
20260505101119 54 202 2.6 6.1 0.00 0.00 0.00 87 1011.2
20260505100612 54 243 1.7 6.1 0.00 0.00 0.00 87 1011.2
20260505100107 55 188 1.7 6.1 0.00 0.00 0.00 86 1011.2
20260505095601 55 210 0.9 4.3 0.00 0.00 0.00 85 1011.1
20260505095054 55 182 1.7 6.1 0.00 0.00 0.00 85 1011.2
20260505094548 56 179 2.6 6.1 0.00 0.00 0.00 83 1011.1
20260505094314 57 167 2.6 7.0 0.00 0.00 0.00 84 1011.1
20260505093537 57 206 1.7 7.0 0.00 0.00 0.00 84 1011.1
20260505093029 57 184 2.6 7.8 0.00 0.00 0.00 84 1011.0
20260505092754 57 176 2.6 7.8 0.00 0.00 0.00 85 1011.1
20260505092017 57 212 3.5 9.6 0.00 0.00 0.00 85 1011.1
20260505091513 57 230 4.3 9.6 0.00 0.00 0.00 85 1011.1
20260505091006 57 212 4.3 9.6 0.00 0.00 0.00 85 1011.0
20260505090500 57 218 3.5 9.6 0.00 0.00 0.00 85 1011.0
20260505090225 57 165 2.6 7.0 0.00 0.00 0.00 85 1010.9
20260505085719 57 227 2.6 7.0 0.00 0.00 0.00 85 1010.9
20260505084945 57 212 2.6 7.8 0.00 0.00 0.00 85 1011.0
20260505084445 57 231 2.6 7.8 0.00 0.00 0.00 85 1011.0
20260505083944 57 229 2.6 6.1 0.00 0.00 0.00 85 1010.9
20260505083442 57 217 2.6 6.1 0.00 0.00 0.00 85 1011.0
20260505082945 57 206 3.5 7.8 0.00 0.00 0.00 85 1010.9
20260505082443 57 190 3.5 7.8 0.00 0.00 0.00 85 1010.9
20260505081942 57 0 3.5 7.8 0.00 0.00 0.00 85 1010.9
20260505081438 57 0 3.5 7.8 0.00 0.00 0.00 85 1010.9
20260505080940 57 219 2.6 7.0 0.00 0.00 0.00 85 1010.9
20260505080440 56 0 2.6 7.0 0.00 0.00 0.00 85 1010.9
20260505075938 56 223 1.7 4.3 0.00 0.00 0.00 86 1010.9
20260505075437 56 204 0.9 3.5 0.00 0.00 0.00 85 1010.9
20260505074935 56 187 1.7 5.2 0.00 0.00 0.00 85 1010.9
20260505074832 56 219 2.6 7.0 0.00 0.00 0.00 85 1010.9
20260505074720 56 223 1.7 5.2 0.00 0.00 0.00 85 1010.9
20260505073434 56 192 1.7 7.0 0.00 0.00 0.00 86 1010.8
20260505072935 56 211 1.7 6.1 0.00 0.00 0.00 87 1010.8
20260505072435 56 188 0.9 6.1 0.00 0.00 0.00 87 1010.8
20260505071932 55 195 0.9 2.6 0.00 0.00 0.00 86 1010.8
20260505071435 55 211 0.9 6.1 0.00 0.00 0.00 86 1010.8
20260505070933 55 227 1.7 6.1 0.00 0.00 0.00 87 1010.8
20260505070435 55 187 0.9 4.3 0.00 0.00 0.00 87 1010.8
20260505065932 54 198 1.7 4.3 0.00 0.00 0.00 87 1010.8
20260505065434 54 173 2.6 7.0 0.00 0.00 0.00 87 1010.8
20260505064939 55 169 2.6 6.1 0.00 0.00 0.00 85 1010.9
20260505064933 55 184 2.6 7.0 0.00 0.00 0.00 86 1010.8
20260505064557 56 200 2.6 6.1 0.00 0.00 0.00 84 1010.9
20260505063434 56 173 2.6 6.1 0.00 0.00 0.00 83 1010.9
20260505062933 56 197 3.5 7.8 0.00 0.00 0.00 83 1010.9
20260505062434 57 171 3.5 8.7 0.00 0.00 0.00 83 1010.9
20260505061933 56 209 3.5 8.7 0.00 0.00 0.00 83 1010.9
20260505061432 56 212 3.5 8.7 0.00 0.00 0.00 83 1010.9
20260505060933 56 232 3.5 8.7 0.00 0.00 0.00 84 1010.9
20260505060430 56 176 3.5 7.8 0.00 0.00 0.00 84 1010.8
20260505055931 56 194 3.5 7.8 0.00 0.00 0.00 84 1010.8
20260505055431 55 229 3.5 7.0 0.00 0.00 0.00 85 1010.9
20260505054931 55 200 3.5 7.8 0.00 0.00 0.00 85 1011.0
20260505054433 55 159 3.5 8.7 0.00 0.00 0.00 86 1011.0
20260505053931 54 211 3.5 8.7 0.00 0.00 0.00 86 1011.1
20260505053437 54 239 3.5 7.0 0.00 0.00 0.00 85 1011.1
20260505052931 54 234 3.5 8.7 0.00 0.00 0.00 86 1011.1
20260505052433 54 181 2.6 8.7 0.00 0.00 0.00 86 1011.2
20260505051925 54 208 2.6 7.0 0.00 0.00 0.00 86 1011.3
20260505051655 54 155 2.6 7.8 0.00 0.00 0.00 86 1011.3
20260505050923 54 167 2.6 7.8 0.00 0.00 0.00 85 1011.4
20260505050424 54 187 2.6 7.0 0.00 0.00 0.00 85 1011.4
20260505041419 54 213 2.6 7.0 0.00 0.00 0.00 86 1011.6
20260505040917 54 209 2.6 7.0 0.00 0.00 0.00 86 1011.6
20260505040416 54 148 2.6 7.0 0.00 0.00 0.00 86 1011.6
20260505035916 54 224 2.6 7.0 0.00 0.00 0.00 86 1011.6
20260505035417 54 173 2.6 7.0 0.00 0.00 0.00 86 1011.6
20260505034911 54 211 2.6 6.1 0.00 0.00 0.00 86 1011.6
20260505034636 54 169 2.6 5.2 0.00 0.00 0.00 86 1011.6
20260505033859 54 203 2.6 8.7 0.00 0.00 0.00 86 1011.5
20260505033353 53 228 2.6 8.7 0.00 0.00 0.00 86 1011.6
20260505032847 54 227 2.6 7.0 0.00 0.00 0.00 86 1011.6
20260505032341 54 220 2.6 6.1 0.00 0.00 0.00 85 1011.7
20260505031835 54 192 2.6 6.1 0.00 0.00 0.00 85 1011.7
20260505031329 54 201 2.6 6.1 0.00 0.00 0.00 85 1011.7
20260505030823 54 211 2.6 6.1 0.00 0.00 0.00 85 1011.7
20260505030318 54 211 2.6 6.1 0.00 0.00 0.00 85 1011.8
20260505025824 54 263 2.6 6.1 0.00 0.00 0.00 85 1011.8
20260505025306 54 252 2.6 7.0 0.00 0.00 0.00 85 1011.9
20260505024800 54 190 2.6 7.0 0.00 0.00 0.00 85 1011.9
20260505024524 54 219 2.6 6.1 0.00 0.00 0.00 85 1011.9
20260505023748 54 210 2.6 7.8 0.00 0.00 0.00 84 1011.9
20260505023242 55 202 3.5 7.8 0.00 0.00 0.00 84 1011.9
20260505022734 55 215 3.5 7.8 0.00 0.00 0.00 84 1011.8
20260505022228 55 242 3.5 7.0 0.00 0.00 0.00 83 1011.9
20260505021724 55 181 3.5 10.4 0.00 0.00 0.00 83 1011.9
20260505020711 55 224 4.3 10.4 0.00 0.00 0.00 82 1012.0
20260505020204 56 202 4.3 10.4 0.00 0.00 0.00 81 1012.0
20260505015659 56 223 4.3 9.6 0.00 0.00 0.00 81 1011.9
20260505015424 56 231 4.3 9.6 0.00 0.00 0.00 80 1011.7
20260505014647 56 326 5.2 9.6 0.00 0.00 0.00 80 1011.7
20260505014142 56 221 4.3 9.6 0.00 0.00 0.00 81 1011.7
20260505013636 56 232 4.3 9.6 0.00 0.00 0.00 81 1011.8
20260505013128 56 237 4.3 9.6 0.00 0.00 0.00 80 1011.7
20260505012624 56 175 3.5 9.6 0.00 0.00 0.00 80 1011.7
20260505012118 56 189 3.5 8.7 0.00 0.00 0.00 79 1011.7
20260505011612 56 200 4.3 8.7 0.00 0.00 0.00 79 1011.6
20260505011104 56 202 3.5 8.7 0.00 0.00 0.00 79 1011.6
20260505010559 56 175 3.5 7.8 0.00 0.00 0.00 78 1011.6
20260505010053 56 156 2.6 6.1 0.00 0.00 0.00 78 1011.5
20260505005549 56 213 2.6 8.7 0.00 0.00 0.00 79 1011.4
20260505005043 56 246 3.5 8.7 0.00 0.00 0.00 80 1011.4
20260505004547 55 187 3.5 7.8 0.00 0.00 0.00 82 1011.3
20260505004029 55 175 3.5 7.0 0.00 0.00 0.00 82 1011.2
20260505003756 55 240 3.5 7.8 0.00 0.00 0.00 82 1011.2
20260505003024 54 164 3.5 7.8 0.00 0.00 0.00 83 1011.2
20260505002511 54 171 2.6 7.8 0.00 0.00 0.00 84 1011.2
20260505002006 54 250 2.6 6.1 0.00 0.00 0.00 83 1011.2
20260505001458 54 206 3.5 7.0 0.00 0.00 0.00 83 1011.1
20260505000954 54 196 3.5 7.0 0.00 0.00 0.00 83 1011.1
20260505000720 54 164 3.5 7.0 0.00 0.00 0.00 83 1011.0
20260504235943 54 181 3.5 7.8 0.00 0.00 0.00 83 1011.0
20260504235435 55 227 3.5 7.8 0.00 0.00 0.00 83 1011.0
20260504234930 54 220 3.5 9.6 0.00 0.00 0.00 83 1011.0
20260504234422 54 188 3.5 9.6 0.00 0.00 0.00 83 1011.0
20260504233917 55 218 3.5 12.2 0.00 0.00 0.00 82 1010.9
20260504233411 55 168 3.5 12.2 0.00 0.00 0.00 82 1011.0
20260504232905 55 164 3.5 7.8 0.00 0.00 0.00 81 1010.9
20260504232401 55 233 3.5 7.8 0.00 0.00 0.00 80 1010.9
20260504231853 55 225 3.5 7.8 0.00 0.00 0.00 79 1010.9
20260504231349 56 168 4.3 7.8 0.00 0.00 0.00 79 1010.9
20260504230849 56 215 3.5 10.4 0.00 0.00 0.00 79 1010.8
20260504230348 56 239 4.3 10.4 0.00 0.00 0.00 78 1010.8
20260504225849 56 189 4.3 9.6 0.00 0.00 0.00 78 1010.8
20260504225621 56 221 3.5 9.6 0.00 0.00 0.00 77 1010.9
20260504224848 56 165 3.5 9.6 0.00 0.00 0.00 77 1010.9
20260504224348 57 180 3.5 7.8 0.00 0.00 0.00 77 1010.8
20260504223849 57 221 4.3 8.7 0.00 0.00 0.00 76 1010.8
20260504223349 57 217 4.3 11.3 0.00 0.00 0.00 76 1010.9
20260504222849 57 180 5.2 11.3 0.00 0.00 0.00 76 1010.9
20260504222348 57 179 4.3 11.3 0.00 0.00 0.00 76 1010.8
20260504222119 57 223 4.3 9.6 0.00 0.00 0.00 75 1010.8
20260504221344 57 189 4.3 9.6 0.00 0.00 0.00 76 1010.8
20260504220845 57 199 4.3 10.4 0.00 0.00 0.00 75 1010.8
20260504220346 57 210 4.3 12.2 0.00 0.00 0.00 75 1010.8
20260504215846 57 207 4.3 12.2 0.00 0.00 0.00 75 1010.8
20260504215619 57 252 4.3 10.4 0.00 0.00 0.00 75 1010.7
20260504214848 58 190 4.3 13.0 0.00 0.00 0.00 75 1010.7
20260504214341 58 143 4.3 13.0 0.00 0.00 0.00 75 1010.7
20260504213835 58 194 5.2 12.2 0.00 0.00 0.00 75 1010.7
20260504213329 58 216 5.2 12.2 0.00 0.00 0.00 74 1010.7
20260504212824 58 215 4.3 12.2 0.00 0.00 0.00 74 1010.7
20260504212317 58 145 4.3 10.4 0.00 0.00 0.00 74 1010.7
20260504211811 58 149 5.2 9.6 0.00 0.00 0.00 73 1010.8
20260504211305 58 162 5.2 10.4 0.00 0.00 0.00 73 1010.8
20260504211030 58 177 4.3 10.4 0.00 0.00 0.00 73 1010.8
20260504210252 58 180 4.3 10.4 0.00 0.00 0.00 73 1010.7
20260504205747 58 163 4.3 13.9 0.00 0.00 0.00 73 1010.8
20260504205242 58 195 4.3 13.9 0.00 0.00 0.00 73 1010.7
20260504204734 59 171 4.3 9.6 0.00 0.00 0.00 73 1010.8
20260504204228 59 165 4.3 8.7 0.00 0.00 0.00 73 1010.8
20260504203723 59 184 4.3 9.6 0.00 0.00 0.00 73 1010.8
20260504203217 59 186 4.3 10.4 0.00 0.00 0.00 72 1010.8
20260504202711 59 178 4.3 12.2 0.00 0.00 0.00 72 1010.8
20260504202205 59 170 4.3 12.2 0.00 0.00 0.00 72 1010.8
20260504201659 59 170 4.3 11.3 0.00 0.00 0.00 71 1010.9
20260504201153 59 151 3.5 10.4 0.00 0.00 0.00 71 1010.9
20260504200646 59 165 3.5 10.4 0.00 0.00 0.00 71 1010.9
20260504200140 59 155 4.3 17.4 0.00 0.00 0.00 71 1011.0
20260504195635 59 225 5.2 17.4 0.00 0.00 0.00 71 1011.0
20260504195129 59 173 4.3 9.6 0.00 0.00 0.00 71 1011.0
20260504194623 59 186 4.3 9.6 0.00 0.00 0.00 71 1011.1
20260504194117 59 201 4.3 9.6 0.00 0.00 0.00 71 1011.2
20260504193617 59 140 5.2 13.0 0.00 0.00 0.00 71 1011.3
20260504193116 59 143 5.2 13.0 0.00 0.00 0.00 71 1011.3
20260504192616 59 160 5.2 11.3 0.00 0.00 0.00 70 1011.3
20260504192349 59 156 4.3 13.0 0.00 0.00 0.00 69 1011.4
20260504191617 59 169 4.3 13.0 0.00 0.00 0.00 69 1011.4
20260504191116 60 165 5.2 13.0 0.00 0.00 0.00 69 1011.5
20260504190615 59 210 5.2 10.4 0.00 0.00 0.00 69 1011.5
20260504190116 59 174 4.3 14.8 0.00 0.00 0.00 69 1011.6
20260504185616 60 186 4.3 14.8 0.00 0.00 0.00 68 1011.6
20260504185349 60 164 4.3 13.9 0.00 0.00 0.00 68 1011.7
20260504184617 60 181 4.3 12.2 0.00 0.00 0.00 67 1011.8
20260504184117 60 188 3.5 12.2 0.00 0.00 0.00 67 1011.9
20260504183617 60 185 4.3 11.3 0.00 0.00 0.00 68 1012.0
20260504183112 60 185 4.3 11.3 0.00 0.00 0.00 68 1012.0
20260504182844 60 170 4.3 10.4 0.00 0.00 0.00 68 1012.0
20260504182114 60 161 5.2 13.0 0.00 0.00 0.00 68 1012.1
20260504181612 60 168 4.3 13.0 0.00 0.00 0.00 68 1012.1
20260504181112 60 272 4.3 12.2 0.00 0.00 0.00 68 1012.1
20260504180613 60 218 4.3 12.2 0.00 0.00 0.00 68 1012.3
20260504180113 60 207 4.3 11.3 0.00 0.00 0.00 68 1012.4
20260504175612 60 158 4.3 10.4 0.00 0.00 0.00 68 1012.4
20260504175114 60 200 4.3 12.2 0.00 0.00 0.00 69 1012.5
20260504174607 60 188 4.3 12.2 0.00 0.00 0.00 69 1012.5
20260504174107 60 175 4.3 10.4 0.00 0.00 0.00 69 1012.5
20260504173609 60 170 4.3 10.4 0.00 0.00 0.00 69 1012.5
20260504173107 60 162 4.3 11.3 0.00 0.00 0.00 69 1012.6
20260504172608 60 230 4.3 12.2 0.00 0.00 0.00 69 1012.7
20260504172108 60 233 4.3 13.9 0.00 0.00 0.00 69 1012.7